WZZ1ZG LHBP-ESSA

Flight info

Callsign WZZ1ZG
Flight time 1h 53m
Altitude 24000
Route LITKU Y301 KALIF/N0439F360 DCT BABKO DCT PENOR DCT ARMOD/N0447F370 Z228 NILUG
Aircraft A321/M-SDE1E2E3FGIJ1J4RWXY/LB1

Departure

Time 2026-05-07 10:07
Airport Budapest Liszt Ferenc International Airport (LHBP)

Arrival

Time 2026-05-07 12:00
Airport Stockholm-Arlanda Airport (ESSA)
Time Latitude Longitude Altitude Speed Heading
2026-05-07 09:51 47.43511 19.26478 458 ft 0 kts 222°
2026-05-07 09:58 47.43520 19.26490 456 ft 4 kts 223°
2026-05-07 09:59 47.43535 19.26512 458 ft 4 kts 249°
2026-05-07 09:59 47.43535 19.26546 458 ft 4 kts 294°
2026-05-07 09:59 47.43522 19.26580 455 ft 4 kts 308°
2026-05-07 09:59 47.43507 19.26605 456 ft 0 kts 312°
2026-05-07 10:02 47.43509 19.26602 456 ft 1 kts 312°
2026-05-07 10:02 47.43518 19.26587 455 ft 3 kts 312°
2026-05-07 10:02 47.43535 19.26560 458 ft 4 kts 312°
2026-05-07 10:02 47.43559 19.26521 458 ft 6 kts 312°
2026-05-07 10:03 47.43591 19.26469 458 ft 8 kts 312°
2026-05-07 10:03 47.43636 19.26397 456 ft 11 kts 312°
2026-05-07 10:03 47.43672 19.26291 457 ft 13 kts 280°
2026-05-07 10:03 47.43674 19.26147 457 ft 15 kts 270°
2026-05-07 10:04 47.43719 19.25999 457 ft 17 kts 305°
2026-05-07 10:04 47.43696 19.25857 457 ft 16 kts 220°
2026-05-07 10:04 47.43614 19.25750 456 ft 17 kts 222°
2026-05-07 10:04 47.43526 19.25633 457 ft 17 kts 222°
2026-05-07 10:05 47.43435 19.25511 456 ft 18 kts 223°
2026-05-07 10:05 47.43341 19.25382 457 ft 19 kts 222°
2026-05-07 10:05 47.43246 19.25255 457 ft 19 kts 222°
2026-05-07 10:05 47.43147 19.25124 457 ft 19 kts 221°
2026-05-07 10:06 47.43081 19.25008 457 ft 11 kts 261°
2026-05-07 10:06 47.43096 19.24947 456 ft 0 kts 311°
2026-05-07 10:06 47.43113 19.24920 457 ft 12 kts 311°
2026-05-07 10:06 47.43336 19.24557 453 ft 86 kts 313°
2026-05-07 10:07 47.43890 19.23658 456 ft 148 kts 313°
2026-05-07 10:07 47.44654 19.22405 813 ft 166 kts 308°
2026-05-07 10:07 47.45433 19.21173 1689 ft 164 kts 307°
2026-05-07 10:07 47.46216 19.19906 2342 ft 174 kts 307°
2026-05-07 10:08 47.47084 19.18484 2630 ft 195 kts 307°
2026-05-07 10:08 47.48051 19.16918 2932 ft 219 kts 310°
2026-05-07 10:08 47.49290 19.15408 3241 ft 249 kts 330°
2026-05-07 10:08 47.51056 19.14820 3738 ft 273 kts
2026-05-07 10:09 47.52890 19.15666 4530 ft 283 kts 21°
2026-05-07 10:09 47.54716 19.16835 5371 ft 286 kts 21°
2026-05-07 10:09 47.56540 19.17976 6165 ft 290 kts 21°
2026-05-07 10:09 47.58403 19.19128 6965 ft 293 kts 21°
2026-05-07 10:10 47.60301 19.20299 7751 ft 297 kts 21°
2026-05-07 10:10 47.62214 19.21482 8534 ft 300 kts 21°
2026-05-07 10:10 47.64145 19.22681 9322 ft 303 kts 21°
2026-05-07 10:10 47.66099 19.23897 10075 ft 307 kts 21°
2026-05-07 10:11 47.68129 19.25163 10380 ft 327 kts 21°
2026-05-07 10:11 47.70273 19.26502 10563 ft 348 kts 21°
2026-05-07 10:11 47.72570 19.27937 11088 ft 357 kts 21°
2026-05-07 10:11 47.74831 19.29350 11714 ft 362 kts 21°
2026-05-07 10:12 47.77167 19.30812 12381 ft 366 kts 22°
2026-05-07 10:12 47.79530 19.32290 13035 ft 370 kts 21°
2026-05-07 10:12 47.81917 19.33786 13696 ft 374 kts 21°
2026-05-07 10:12 47.84325 19.35302 14287 ft 378 kts 21°
2026-05-07 10:13 47.86751 19.36831 14871 ft 381 kts 21°
2026-05-07 10:13 47.89207 19.38378 15490 ft 385 kts 21°
2026-05-07 10:13 47.91694 19.39948 16108 ft 389 kts 21°
2026-05-07 10:13 47.94200 19.41536 16711 ft 392 kts 21°
2026-05-07 10:14 47.96689 19.43109 17303 ft 396 kts 21°
2026-05-07 10:14 47.99235 19.44716 17897 ft 399 kts 21°
2026-05-07 10:14 48.01797 19.46333 18460 ft 403 kts 22°
2026-05-07 10:14 48.04382 19.47968 18966 ft 407 kts 22°
2026-05-07 10:15 48.07012 19.49634 19483 ft 410 kts 22°
2026-05-07 10:15 48.09632 19.51301 19992 ft 413 kts 22°
2026-05-07 10:15 48.12291 19.52995 20511 ft 417 kts 22°
2026-05-07 10:15 48.14946 19.54688 21021 ft 420 kts 22°
2026-05-07 10:16 48.17668 19.56423 21543 ft 424 kts 22°
2026-05-07 10:16 48.20389 19.58082 22046 ft 426 kts 17°
2026-05-07 10:16 48.23255 19.59169 22528 ft 428 kts
2026-05-07 10:16 48.26231 19.59520 22993 ft 429 kts 357°
2026-05-07 10:17 48.29212 19.59270 23469 ft 431 kts 353°
2026-05-07 10:17 48.32235 19.58970 23879 ft 434 kts 354°
2026-05-07 10:17 48.35232 19.58679 24276 ft 437 kts 354°
2026-05-07 10:17 48.38255 19.58384 24681 ft 439 kts 353°
2026-05-07 10:18 48.41342 19.58083 25081 ft 441 kts 353°
2026-05-07 10:18 48.44368 19.57787 25473 ft 444 kts 353°
2026-05-07 10:18 48.47453 19.57487 25878 ft 446 kts 353°
2026-05-07 10:18 48.50555 19.57188 26268 ft 448 kts 353°
2026-05-07 10:19 48.53668 19.56895 26651 ft 451 kts 354°
2026-05-07 10:19 48.56823 19.56611 27035 ft 453 kts 354°
2026-05-07 10:19 48.59953 19.56335 27407 ft 456 kts 354°
2026-05-07 10:19 48.63126 19.56057 27774 ft 458 kts 354°
2026-05-07 10:20 48.66316 19.55771 28126 ft 461 kts 354°
2026-05-07 10:20 48.69513 19.55478 28496 ft 464 kts 354°
2026-05-07 10:20 48.72741 19.55181 28859 ft 466 kts 354°
2026-05-07 10:20 48.75980 19.54883 29182 ft 469 kts 354°
2026-05-07 10:21 48.79241 19.54583 29506 ft 471 kts 354°
2026-05-07 10:21 48.82550 19.54280 29801 ft 473 kts 354°
2026-05-07 10:21 48.85826 19.53980 30098 ft 476 kts 354°
2026-05-07 10:21 48.89163 19.53673 30371 ft 478 kts 354°
2026-05-07 10:22 48.92482 19.53365 30676 ft 481 kts 354°
2026-05-07 10:22 48.95830 19.53054 30980 ft 482 kts 354°
2026-05-07 10:22 48.99185 19.52743 31340 ft 483 kts 353°
2026-05-07 10:22 49.02497 19.52436 31756 ft 481 kts 353°
2026-05-07 10:23 49.05811 19.52130 32166 ft 480 kts 353°
2026-05-07 10:23 49.09170 19.51820 32565 ft 479 kts 353°
2026-05-07 10:23 49.12469 19.51518 32981 ft 478 kts 353°
2026-05-07 10:23 49.15799 19.51210 33377 ft 477 kts 353°
2026-05-07 10:24 49.19114 19.50899 33794 ft 475 kts 353°
2026-05-07 10:24 49.22364 19.50592 34161 ft 474 kts 353°
2026-05-07 10:24 49.25647 19.50285 34488 ft 473 kts 353°
2026-05-07 10:24 49.28941 19.49982 34813 ft 473 kts 353°
2026-05-07 10:25 49.32212 19.49681 35115 ft 472 kts 353°
2026-05-07 10:25 49.35473 19.49376 35426 ft 472 kts 353°
2026-05-07 10:25 49.38777 19.49064 35735 ft 471 kts 352°
2026-05-07 10:25 49.42052 19.48753 35910 ft 472 kts 352°
2026-05-07 10:26 49.45292 19.48448 35949 ft 469 kts 353°
2026-05-07 10:26 49.51762 19.47840 35945 ft 468 kts 352°
2026-05-07 10:27 49.58300 19.47216 35945 ft 468 kts 352°
2026-05-07 10:27 49.64644 19.45799 35940 ft 462 kts 343°
2026-05-07 10:28 49.70949 19.43690 35940 ft 463 kts 343°
2026-05-07 10:28 49.77194 19.41590 35943 ft 463 kts 343°
2026-05-07 10:29 49.83497 19.39472 35951 ft 464 kts 343°
2026-05-07 10:29 49.89811 19.37351 35945 ft 464 kts 343°
2026-05-07 10:30 49.99291 19.34145 35949 ft 464 kts 343°
2026-05-07 10:30 50.05580 19.32005 35948 ft 465 kts 343°
2026-05-07 10:31 50.11871 19.29866 35937 ft 465 kts 343°
2026-05-07 10:31 50.18196 19.27714 35949 ft 465 kts 343°
2026-05-07 10:32 50.24528 19.25553 35956 ft 465 kts 343°
2026-05-07 10:32 50.30839 19.23394 35963 ft 466 kts 343°
2026-05-07 10:33 50.37177 19.21232 35967 ft 466 kts 343°
2026-05-07 10:33 50.43523 19.19040 35972 ft 466 kts 343°
2026-05-07 10:34 50.49799 19.16873 35971 ft 466 kts 343°
2026-05-07 10:34 50.56128 19.14680 35973 ft 466 kts 343°
2026-05-07 10:35 50.62476 19.12474 35963 ft 466 kts 343°
2026-05-07 10:35 50.68777 19.10288 35956 ft 466 kts 343°
2026-05-07 10:36 50.75151 19.08062 35952 ft 466 kts 343°
2026-05-07 10:36 50.81438 19.05857 35954 ft 467 kts 343°
2026-05-07 10:37 50.87789 19.03621 35949 ft 467 kts 343°
2026-05-07 10:37 50.94111 19.01391 35951 ft 467 kts 343°
2026-05-07 10:38 51.00454 18.99165 35958 ft 467 kts 343°
2026-05-07 10:38 51.06779 18.96931 35957 ft 467 kts 342°
2026-05-07 10:39 51.13123 18.94676 35958 ft 467 kts 342°
2026-05-07 10:39 51.19457 18.92412 35968 ft 467 kts 342°
2026-05-07 10:40 51.25776 18.90148 35971 ft 468 kts 342°
2026-05-07 10:40 51.32164 18.87868 35967 ft 468 kts 342°
2026-05-07 10:41 51.38461 18.85611 35972 ft 468 kts 342°
2026-05-07 10:41 51.44813 18.83325 35974 ft 469 kts 342°
2026-05-07 10:42 51.51198 18.81013 35982 ft 469 kts 342°
2026-05-07 10:42 51.57507 18.78730 35984 ft 469 kts 342°
2026-05-07 10:43 51.63873 18.76420 35984 ft 468 kts 342°
2026-05-07 10:43 51.70231 18.74109 35984 ft 468 kts 342°
2026-05-07 10:44 51.76576 18.71792 35984 ft 468 kts 342°
2026-05-07 10:44 51.82942 18.69456 35985 ft 468 kts 342°
2026-05-07 10:45 51.89253 18.67126 35987 ft 469 kts 342°
2026-05-07 10:45 51.95608 18.64783 35986 ft 469 kts 342°
2026-05-07 10:46 52.01994 18.62437 35991 ft 470 kts 342°
2026-05-07 10:46 52.08350 18.60079 35980 ft 470 kts 342°
2026-05-07 10:47 52.14705 18.57703 35989 ft 470 kts 342°
2026-05-07 10:47 52.21061 18.55326 35988 ft 470 kts 342°
2026-05-07 10:48 52.27456 18.52942 35989 ft 470 kts 342°
2026-05-07 10:48 52.33807 18.50563 35992 ft 470 kts 342°
2026-05-07 10:49 52.40164 18.48184 35992 ft 470 kts 342°
2026-05-07 10:49 52.46539 18.45786 35995 ft 470 kts 342°
2026-05-07 10:50 52.52926 18.43369 35996 ft 470 kts 342°
2026-05-07 10:50 52.59214 18.40969 35997 ft 470 kts 342°
2026-05-07 10:51 52.65633 18.38523 36000 ft 471 kts 342°
2026-05-07 10:51 52.71977 18.36108 35992 ft 471 kts 342°
2026-05-07 10:52 52.78342 18.33674 35998 ft 471 kts 342°
2026-05-07 10:52 52.84748 18.31215 36013 ft 471 kts 342°
2026-05-07 10:53 52.91086 18.28762 36012 ft 471 kts 342°
2026-05-07 10:53 52.97471 18.26296 36025 ft 472 kts 342°
2026-05-07 10:54 53.03880 18.23817 36027 ft 472 kts 342°
2026-05-07 10:54 53.10251 18.21340 36022 ft 472 kts 342°
2026-05-07 10:55 53.16634 18.18856 36026 ft 472 kts 342°
2026-05-07 10:55 53.23006 18.16356 36016 ft 472 kts 342°
2026-05-07 10:56 53.29393 18.13847 36012 ft 472 kts 343°
2026-05-07 10:56 53.35766 18.11346 36004 ft 472 kts 343°
2026-05-07 10:57 53.42179 18.08803 36000 ft 472 kts 343°
2026-05-07 10:57 53.48585 18.06257 35998 ft 473 kts 343°
2026-05-07 10:58 53.54936 18.03730 36003 ft 474 kts 343°
2026-05-07 10:58 53.61349 18.01184 36007 ft 474 kts 343°
2026-05-07 10:59 53.67796 17.98627 36014 ft 475 kts 343°
2026-05-07 10:59 53.74224 17.96065 36018 ft 475 kts 343°
2026-05-07 11:00 53.80605 17.93492 36020 ft 475 kts 343°
2026-05-07 11:00 53.87020 17.90890 36019 ft 476 kts 343°
2026-05-07 11:01 53.93511 17.88245 36025 ft 476 kts 343°
2026-05-07 11:01 53.99838 17.85679 36022 ft 476 kts 343°
2026-05-07 11:02 54.06341 17.83046 36027 ft 476 kts 343°
2026-05-07 11:02 54.12746 17.80440 36029 ft 476 kts 343°
2026-05-07 11:03 54.19191 17.77784 36031 ft 476 kts 343°
2026-05-07 11:03 54.25649 17.75113 36038 ft 476 kts 343°
2026-05-07 11:04 54.32052 17.72476 36047 ft 476 kts 343°
2026-05-07 11:04 54.38481 17.69822 36052 ft 476 kts 343°
2026-05-07 11:05 54.44931 17.67151 36052 ft 476 kts 343°
2026-05-07 11:05 54.51340 17.64480 36057 ft 475 kts 343°
2026-05-07 11:06 54.57742 17.61802 36058 ft 475 kts 343°
2026-05-07 11:06 54.64168 17.59103 36061 ft 475 kts 343°
2026-05-07 11:07 54.70578 17.56402 36063 ft 474 kts 343°
2026-05-07 11:07 54.76977 17.53707 36068 ft 474 kts 343°
2026-05-07 11:08 54.83369 17.51000 36072 ft 474 kts 343°
2026-05-07 11:08 54.89803 17.48274 36076 ft 473 kts 343°
2026-05-07 11:09 54.96138 17.45573 36079 ft 473 kts 343°
2026-05-07 11:09 55.02534 17.42839 36078 ft 472 kts 343°
2026-05-07 11:10 55.08928 17.40093 36076 ft 472 kts 343°
2026-05-07 11:10 55.15273 17.37359 36080 ft 472 kts 343°
2026-05-07 11:11 55.21602 17.34618 36083 ft 471 kts 343°
2026-05-07 11:11 55.27990 17.31847 36086 ft 471 kts 343°
2026-05-07 11:12 55.34335 17.29100 36086 ft 471 kts 343°
2026-05-07 11:12 55.40720 17.26326 36088 ft 470 kts 342°
2026-05-07 11:13 55.46996 17.23581 36095 ft 470 kts 342°
2026-05-07 11:13 55.53335 17.20792 36093 ft 469 kts 342°
2026-05-07 11:14 55.59695 17.17979 36097 ft 469 kts 342°
2026-05-07 11:14 55.66127 17.16389 36093 ft 475 kts 358°
2026-05-07 11:15 55.69488 17.16688 36275 ft 478 kts
2026-05-07 11:15 55.72765 17.17019 36565 ft 477 kts
2026-05-07 11:15 55.76055 17.17330 36871 ft 477 kts
2026-05-07 11:15 55.79391 17.17634 37060 ft 477 kts
2026-05-07 11:16 55.86015 17.18245 37072 ft 476 kts
2026-05-07 11:16 55.92586 17.18868 37075 ft 476 kts
2026-05-07 11:17 55.99188 17.19505 37078 ft 476 kts
2026-05-07 11:17 56.05797 17.20140 37080 ft 475 kts 360°
2026-05-07 11:18 56.12407 17.20772 37085 ft 475 kts 360°
2026-05-07 11:18 56.18988 17.21415 37089 ft 475 kts 360°
2026-05-07 11:19 56.25580 17.22073 37099 ft 475 kts 360°
2026-05-07 11:19 56.32186 17.22726 37098 ft 475 kts 359°
2026-05-07 11:20 56.38794 17.23360 37101 ft 475 kts 359°
2026-05-07 11:20 56.45391 17.23996 37102 ft 475 kts 359°
2026-05-07 11:21 56.51952 17.24650 37101 ft 475 kts 359°
2026-05-07 11:21 56.58529 17.25307 37102 ft 475 kts 359°
2026-05-07 11:22 56.65137 17.25960 37100 ft 475 kts 359°
2026-05-07 11:22 56.71723 17.26623 37102 ft 476 kts 359°
2026-05-07 11:23 56.78372 17.27302 37104 ft 475 kts 359°
2026-05-07 11:23 56.84934 17.27952 37110 ft 475 kts 359°
2026-05-07 11:24 56.91530 17.28619 37110 ft 475 kts 359°
2026-05-07 11:24 56.98137 17.29286 37110 ft 475 kts 359°
2026-05-07 11:25 57.04679 17.29926 37113 ft 475 kts 358°
2026-05-07 11:25 57.11323 17.30597 37112 ft 475 kts 359°
2026-05-07 11:26 57.17876 17.31276 37109 ft 475 kts 358°
2026-05-07 11:26 57.24459 17.31945 37113 ft 475 kts 358°
2026-05-07 11:27 57.31069 17.32637 37116 ft 475 kts 358°
2026-05-07 11:27 57.37628 17.33323 37116 ft 475 kts 358°
2026-05-07 11:28 57.44196 17.33984 37115 ft 475 kts 358°
2026-05-07 11:28 57.50809 17.34887 36886 ft 478 kts
2026-05-07 11:29 57.54060 17.36152 36631 ft 480 kts
2026-05-07 11:29 57.57324 17.37466 36384 ft 480 kts
2026-05-07 11:29 57.59504 17.38334 36214 ft 480 kts
2026-05-07 11:29 57.62758 17.39623 35700 ft 480 kts
2026-05-07 11:30 57.67111 17.41345 34983 ft 479 kts
2026-05-07 11:30 57.69271 17.42204 34659 ft 478 kts
2026-05-07 11:30 57.72514 17.43506 34179 ft 476 kts
2026-05-07 11:30 57.76800 17.45233 33487 ft 473 kts
2026-05-07 11:31 57.79995 17.46519 33012 ft 469 kts
2026-05-07 11:31 57.82112 17.47374 32683 ft 467 kts
2026-05-07 11:31 57.85272 17.48658 32299 ft 461 kts
2026-05-07 11:31 57.88394 17.49919 31733 ft 458 kts
2026-05-07 11:32 57.94553 17.52379 30848 ft 448 kts
2026-05-07 11:32 57.97587 17.53605 30313 ft 446 kts
2026-05-07 11:32 58.00595 17.54823 29854 ft 440 kts
2026-05-07 11:33 58.03562 17.56029 29354 ft 435 kts
2026-05-07 11:33 58.06487 17.57220 28923 ft 429 kts
2026-05-07 11:33 58.09422 17.58420 28498 ft 422 kts
2026-05-07 11:33 58.12233 17.59571 28084 ft 417 kts
2026-05-07 11:34 58.15046 17.60723 27683 ft 411 kts
2026-05-07 11:34 58.17816 17.61855 27271 ft 406 kts
2026-05-07 11:34 58.20571 17.62985 26887 ft 402 kts
2026-05-07 11:34 58.23300 17.64107 26514 ft 398 kts
2026-05-07 11:35 58.25975 17.65203 26135 ft 395 kts
2026-05-07 11:35 58.28644 17.66304 25745 ft 393 kts
2026-05-07 11:35 58.31332 17.67424 25353 ft 390 kts
2026-05-07 11:35 58.33927 17.68503 24971 ft 387 kts
2026-05-07 11:36 58.36555 17.69586 24563 ft 384 kts
2026-05-07 11:36 58.39170 17.70661 24170 ft 382 kts
2026-05-07 11:36 58.41738 17.71715 23766 ft 380 kts
2026-05-07 11:36 58.44320 17.72790 23303 ft 378 kts
2026-05-07 11:37 58.46868 17.73854 22901 ft 373 kts
2026-05-07 11:37 58.49376 17.74906 22479 ft 369 kts
2026-05-07 11:37 58.51874 17.75956 22073 ft 366 kts
2026-05-07 11:37 58.54341 17.76988 21673 ft 362 kts
2026-05-07 11:38 58.56794 17.78009 21261 ft 359 kts
2026-05-07 11:38 58.59206 17.79020 20859 ft 355 kts
2026-05-07 11:38 58.61606 17.80032 20458 ft 352 kts
2026-05-07 11:38 58.64000 17.81046 20052 ft 349 kts
2026-05-07 11:39 58.66361 17.82044 19671 ft 346 kts
2026-05-07 11:39 58.68678 17.83008 19279 ft 344 kts
2026-05-07 11:39 58.71045 17.83990 18881 ft 341 kts
2026-05-07 11:39 58.73320 17.84945 18503 ft 339 kts
2026-05-07 11:40 58.75617 17.85911 18077 ft 337 kts
2026-05-07 11:40 58.77894 17.86874 17687 ft 334 kts
2026-05-07 11:40 58.80151 17.87836 17313 ft 330 kts
2026-05-07 11:40 58.82342 17.89180 16941 ft 331 kts 19°
2026-05-07 11:41 58.84425 17.91141 16724 ft 336 kts 22°
2026-05-07 11:41 58.86524 17.93127 16454 ft 338 kts 21°
2026-05-07 11:41 58.88628 17.95107 16200 ft 337 kts 21°
2026-05-07 11:41 58.90715 17.97079 15938 ft 335 kts 21°
2026-05-07 11:42 58.92819 17.99065 15671 ft 334 kts 21°
2026-05-07 11:42 58.94896 18.01020 15411 ft 332 kts 21°
2026-05-07 11:42 58.96959 18.02968 15159 ft 331 kts 21°
2026-05-07 11:42 58.99026 18.04931 14895 ft 329 kts 22°
2026-05-07 11:43 59.01074 18.06883 14637 ft 328 kts 22°
2026-05-07 11:43 59.03120 18.08841 14393 ft 326 kts 22°
2026-05-07 11:43 59.05148 18.10784 14151 ft 325 kts 22°
2026-05-07 11:43 59.07177 18.12725 13895 ft 324 kts 22°
2026-05-07 11:44 59.09210 18.14451 13619 ft 318 kts 13°
2026-05-07 11:44 59.11338 18.15363 13373 ft 312 kts
2026-05-07 11:44 59.13496 18.15633 13140 ft 310 kts 358°
2026-05-07 11:44 59.15641 18.15879 12885 ft 309 kts 359°
2026-05-07 11:45 59.17778 18.16136 12664 ft 307 kts 359°
2026-05-07 11:45 59.19921 18.16393 12419 ft 306 kts 359°
2026-05-07 11:45 59.22039 18.16641 12182 ft 305 kts 359°
2026-05-07 11:45 59.24158 18.16891 11952 ft 304 kts 359°
2026-05-07 11:46 59.26264 18.17145 11707 ft 303 kts 359°
2026-05-07 11:46 59.28353 18.17396 11474 ft 302 kts 359°
2026-05-07 11:46 59.30444 18.17643 11241 ft 301 kts 359°
2026-05-07 11:46 59.32514 18.17885 11013 ft 299 kts 359°
2026-05-07 11:47 59.32936 18.17934 10968 ft 299 kts 359°
2026-05-07 11:47 59.34854 18.18217 10755 ft 296 kts 360°
2026-05-07 11:47 59.36923 18.18478 10523 ft 297 kts 359°
2026-05-07 11:48 59.38979 18.18706 10285 ft 293 kts 359°
2026-05-07 11:48 59.40998 18.18928 10028 ft 287 kts 359°
2026-05-07 11:48 59.42938 18.19143 9830 ft 285 kts 360°
2026-05-07 11:48 59.44933 18.19368 9600 ft 283 kts 360°
2026-05-07 11:49 59.46910 18.19596 9382 ft 282 kts 360°
2026-05-07 11:49 59.48848 18.19826 9162 ft 281 kts
2026-05-07 11:49 59.50767 18.20054 8913 ft 279 kts
2026-05-07 11:49 59.52696 18.20286 8692 ft 278 kts
2026-05-07 11:50 59.54634 18.20865 8445 ft 278 kts
2026-05-07 11:50 59.56475 18.21539 8198 ft 276 kts
2026-05-07 11:50 59.58357 18.22222 7955 ft 275 kts
2026-05-07 11:50 59.60251 18.22907 7703 ft 274 kts
2026-05-07 11:51 59.62177 18.23606 7461 ft 273 kts
2026-05-07 11:51 59.64017 18.24279 7216 ft 271 kts
2026-05-07 11:51 59.65823 18.24943 6985 ft 270 kts
2026-05-07 11:51 59.67710 18.25637 6735 ft 269 kts
2026-05-07 11:52 59.69518 18.26299 6515 ft 268 kts
2026-05-07 11:52 59.71328 18.26960 6254 ft 267 kts
2026-05-07 11:52 59.73178 18.27637 6035 ft 266 kts
2026-05-07 11:52 59.75024 18.28311 5788 ft 266 kts
2026-05-07 11:53 59.76798 18.28963 5553 ft 266 kts
2026-05-07 11:53 59.78618 18.29635 5310 ft 266 kts
2026-05-07 11:53 59.80436 18.30229 5077 ft 265 kts
2026-05-07 11:53 59.82226 18.29735 4836 ft 260 kts 338°
2026-05-07 11:54 59.83772 18.27892 4605 ft 257 kts 315°
2026-05-07 11:54 59.84810 18.25084 4372 ft 255 kts 293°
2026-05-07 11:54 59.85238 18.21673 4097 ft 253 kts 271°
2026-05-07 11:54 59.84991 18.18247 3828 ft 252 kts 250°
2026-05-07 11:55 59.84186 18.15157 3573 ft 253 kts 239°
2026-05-07 11:55 59.83305 18.12190 3384 ft 247 kts 239°
2026-05-07 11:55 59.82447 18.09306 3259 ft 239 kts 240°
2026-05-07 11:55 59.81611 18.06492 3123 ft 236 kts 240°
2026-05-07 11:56 59.80757 18.03774 2991 ft 226 kts 231°
2026-05-07 11:56 59.79612 18.01777 2857 ft 214 kts 211°
2026-05-07 11:56 59.78261 18.00766 2731 ft 202 kts 192°
2026-05-07 11:56 59.76934 18.00292 2592 ft 186 kts 191°
2026-05-07 11:57 59.75686 17.99828 2354 ft 182 kts 191°
2026-05-07 11:57 59.74453 17.99376 2103 ft 176 kts 191°
2026-05-07 11:57 59.73290 17.98951 1860 ft 161 kts 192°
2026-05-07 11:57 59.72238 17.98567 1690 ft 149 kts 191°
2026-05-07 11:58 59.71255 17.98208 1467 ft 140 kts 192°
2026-05-07 11:58 59.70308 17.97863 1275 ft 137 kts 192°
2026-05-07 11:58 59.69368 17.97520 1076 ft 136 kts 191°
2026-05-07 11:58 59.68442 17.97183 875 ft 137 kts 191°
2026-05-07 11:59 59.67515 17.96849 729 ft 137 kts 191°
2026-05-07 11:59 59.66579 17.96495 526 ft 136 kts 191°
2026-05-07 11:59 59.65639 17.96167 317 ft 136 kts 193°
2026-05-07 11:59 59.64726 17.95830 140 ft 135 kts 191°
2026-05-07 12:00 59.63904 17.95533 114 ft 96 kts 191°
2026-05-07 12:00 59.63438 17.95360 120 ft 55 kts 192°
2026-05-07 12:00 59.63188 17.95272 129 ft 24 kts 190°
2026-05-07 12:00 59.63147 17.95256 129 ft 0 kts 194°
2026-05-07 12:01 59.63143 17.95254 129 ft 3 kts 195°
2026-05-07 12:01 59.63086 17.95217 133 ft 13 kts 201°
2026-05-07 12:01 59.62981 17.95114 136 ft 22 kts 214°
2026-05-07 12:01 59.62860 17.94911 137 ft 18 kts 237°
2026-05-07 12:02 59.62900 17.94764 137 ft 15 kts 356°
2026-05-07 12:02 59.63012 17.94803 133 ft 18 kts 11°
2026-05-07 12:02 59.63153 17.94856 127 ft 22 kts 11°
2026-05-07 12:02 59.63317 17.94913 120 ft 26 kts 11°
2026-05-07 12:03 59.63495 17.94978 115 ft 27 kts 10°
2026-05-07 12:03 59.63664 17.95040 113 ft 24 kts 10°
2026-05-07 12:03 59.63835 17.95102 110 ft 26 kts 11°
2026-05-07 12:03 59.64019 17.95167 108 ft 27 kts 11°
2026-05-07 12:04 59.64190 17.95226 107 ft 26 kts
2026-05-07 12:04 59.64360 17.95109 104 ft 27 kts 310°
2026-05-07 12:04 59.64394 17.94781 103 ft 20 kts 252°
2026-05-07 12:04 59.64329 17.94539 103 ft 21 kts 238°
2026-05-07 12:05 59.64250 17.94291 102 ft 22 kts 238°
2026-05-07 12:05 59.64166 17.94029 106 ft 22 kts 238°
2026-05-07 12:05 59.64089 17.93785 111 ft 21 kts 237°
2026-05-07 12:05 59.64013 17.93540 112 ft 22 kts 243°
2026-05-07 12:06 59.64002 17.93240 111 ft 23 kts 292°
2026-05-07 12:06 59.64078 17.92958 110 ft 24 kts 296°
2026-05-07 12:06 59.64154 17.92661 111 ft 25 kts 297°
2026-05-07 12:06 59.64230 17.92374 115 ft 24 kts 298°
2026-05-07 12:07 59.64321 17.92094 112 ft 24 kts 334°
2026-05-07 12:07 59.64473 17.92130 113 ft 21 kts
2026-05-07 12:07 59.64615 17.92170 112 ft 20 kts 10°
2026-05-07 12:07 59.64717 17.92292 112 ft 16 kts 96°
2026-05-07 12:08 59.64706 17.92461 112 ft 6 kts 41°
2026-05-07 12:08 59.64722 17.92489 111 ft 4 kts 41°
2026-05-07 12:08 59.64735 17.92510 112 ft 1 kts 38°
2026-05-07 12:08 59.64742 17.92521 112 ft 0 kts 37°
2026-05-07 12:09 59.64743 17.92522 112 ft 0 kts 37°